Wetbulb
55.27 53.71 52.31 51.83 50.92 50.54 50.81 51.61 52.05 50.14 49.70 49.58 49.75 49.32 49.06 48.78 49.29 49.39 48.99 48.65 48.67 48.55
51.80 51.24 50.58 50.86 51.34 51.42 51.70 50.15 49.31 48.42 47.79 48.12 48.45 48.22 48.04 47.60 47.73 48.56 48.50 48.36 48.42 47.99
50.92 51.38 51.30 51.43 50.84 50.55 49.61 48.89 47.92 47.33 47.09 46.99 46.98 47.13 47.38 47.21 48.13 47.94 47.93 48.37 48.52 48.25
50.01 49.94 50.08 49.72 49.74 49.50 48.79 48.23 47.63 47.45 47.09 46.54 46.11 46.15 46.06 47.06 47.25 47.54 47.79 48.36 48.13 48.02
48.88 48.77 48.52 48.33 48.44 48.47 47.14 47.25 47.31 47.49 47.04 46.77 46.36 46.03 45.55 45.42 45.85 46.18 46.76 47.40 47.64 47.66
47.70 47.40 47.00 47.48 47.70 47.00 46.59 46.42 46.78 46.96 46.57 46.19 45.84 45.45 45.64 45.38 45.36 45.92 46.55 47.01 47.15 47.67
46.77 46.41 46.56 47.10 47.14 47.01 46.96 46.55 46.48 46.41 46.12 45.50 45.04 45.22 45.55 45.29 45.29 45.87 46.57 47.05 47.14 47.97
46.57 46.82 46.71 46.63 47.07 47.28 47.24 47.05 47.13 45.24 44.39 44.55 44.84 44.89 45.62 44.82 44.81 45.13 45.73 46.41 46.62 48.11
46.55 46.34 45.85 46.08 45.97 45.87 45.67 45.23 44.56 43.42 43.25 42.87 44.24 43.33 45.46 44.51 44.49 44.77 44.97 45.48 46.48 47.42
45.81 45.45 45.48 45.43 45.03 44.09 43.76 43.68 42.54 42.48 42.76 42.49 43.03 42.19 43.13 44.63 44.53 44.84 45.27 46.31 46.78 46.62
45.21 44.65 44.43 44.31 43.63 43.38 43.58 43.16 42.24 42.05 42.10 42.35 43.14 41.68 41.65 43.44 44.80 45.08 45.50 46.33 46.92 46.24
44.52 43.80 43.72 43.17 42.78 43.18 43.60 43.07 42.54 42.59 42.13 41.76 42.33 40.92 40.74 42.31 43.87 44.04 44.29 45.29 45.68 45.62
44.78 44.02 43.30 43.23 43.05 43.02 43.59 43.52 43.22 42.05 41.89 42.03 41.34 40.27 39.98 41.22 42.50 42.79 42.81 44.34 44.40 43.50
44.00 43.40 43.23 42.40 42.03 41.56 41.34 40.83 40.75 40.59 40.91 41.17 41.01 41.29 39.79 39.61 41.28 41.56 41.85 41.86 41.79 42.30
MSLP
1016.02 1016.82 1017.17 1017.40 1017.47 1017.53 1017.93 1018.77 1018.53 1018.81 1019.06 1018.74 1018.51 1018.12 1017.87 1017.78 1018.01 1018.47 1018.51 1018.70 1018.69 1018.53
1016.79 1017.31 1017.63 1018.31 1018.70 1018.91 1019.21 1019.23 1019.48 1019.50 1019.19 1018.74 1018.83 1018.47 1018.63 1018.44 1018.79 1018.92 1019.09 1018.92 1018.74 1018.63
1017.35 1017.61 1018.20 1018.62 1018.86 1018.90 1018.99 1019.45 1019.51 1019.77 1019.13 1019.20 1019.34 1019.15 1019.11 1018.97 1019.09 1019.21 1018.96 1018.98 1019.00 1018.89
1018.12 1018.14 1018.48 1018.81 1019.06 1019.21 1019.39 1019.66 1020.07 1019.98 1019.48 1020.20 1019.86 1019.85 1019.24 1019.21 1019.22 1019.24 1019.38 1019.25 1019.18 1019.07
1017.96 1018.43 1018.70 1019.21 1019.41 1019.36 1019.90 1020.39 1020.55 1019.84 1020.34 1019.94 1019.95 1019.64 1019.45 1019.68 1019.76 1019.72 1019.71 1019.65 1019.47 1019.34
1018.77 1019.10 1019.46 1019.80 1019.95 1020.15 1020.70 1020.65 1020.44 1020.21 1020.14 1020.31 1020.30 1020.10 1020.08 1020.07 1019.97 1019.97 1020.04 1019.98 1019.67 1019.42
1019.22 1019.68 1020.07 1020.30 1020.37 1020.54 1020.78 1020.69 1020.56 1020.85 1020.76 1020.76 1020.76 1020.54 1020.42 1020.41 1020.41 1020.46 1020.22 1019.97 1019.90 1019.68
1019.70 1020.02 1020.31 1020.47 1020.63 1020.87 1021.06 1021.12 1021.29 1021.40 1021.29 1021.39 1021.44 1021.18 1020.98 1020.92 1020.94 1020.79 1020.54 1020.41 1020.26 1020.01
1020.37 1020.55 1020.79 1020.99 1021.15 1021.35 1021.62 1021.89 1021.94 1022.04 1022.19 1022.24 1022.11 1021.86 1021.50 1021.26 1021.19 1021.13 1021.20 1021.06 1020.63 1020.16
1020.59 1020.84 1021.15 1021.40 1021.62 1021.91 1022.29 1022.58 1022.85 1022.94 1022.94 1022.80 1022.68 1022.43 1021.99 1021.62 1021.66 1021.72 1021.59 1021.29 1020.82 1020.26
1021.05 1021.38 1021.75 1021.95 1022.17 1022.54 1022.94 1023.22 1023.38 1023.59 1023.56 1023.32 1022.97 1022.62 1022.30 1022.26 1022.13 1021.97 1021.68 1021.35 1020.91 1020.52
1021.77 1022.17 1022.48 1022.68 1022.90 1023.08 1023.39 1023.67 1023.70 1023.84 1023.92 1023.69 1023.33 1023.31 1023.02 1022.76 1022.44 1021.93 1021.63 1021.38 1020.98 1020.57
1022.34 1022.71 1023.02 1023.16 1023.23 1023.49 1023.60 1023.85 1023.85 1024.20 1024.26 1024.12 1023.79 1023.81 1023.38 1023.08 1022.65 1022.15 1021.89 1021.32 1020.81 1020.43
1022.66 1022.98 1023.22 1023.36 1023.61 1023.87 1024.18 1024.30 1024.39 1024.53 1024.59 1024.23 1023.94 1023.74 1023.15 1023.33 1023.07 1022.63 1021.84 1021.31 1020.89 1020.70
Wind_Speed
11 7 7 5 5 5 6 5 6 7 5 6 7 7 7 6 6 6 6 8 5 3
9 9 9 7 5 5 7 7 6 6 7 8 8 9 7 6 6 6 5 5 6 4
9 8 7 7 8 9 8 7 8 7 8 9 8 7 6 5 6 6 5 5 7 6
9 9 9 8 8 8 8 7 7 7 9 7 7 5 6 6 7 8 6 6 7 8
10 9 9 8 7 8 9 6 5 8 7 8 7 7 8 7 6 7 7 7 7 8
9 9 8 8 7 7 6 6 7 8 9 9 9 8 7 6 6 6 6 6 7 8
8 8 6 6 7 7 5 7 7 7 9 9 8 9 8 7 7 7 7 8 8 7
7 6 6 6 6 6 7 7 8 8 10 8 8 8 8 7 8 8 8 8 7 5
7 7 6 6 7 8 8 8 8 9 9 8 7 12 10 8 6 7 6 6 6 6
6 7 6 6 7 7 7 6 7 8 7 7 7 11 10 10 5 3 3 5 6 8
6 7 5 6 7 5 4 5 5 5 5 4 7 12 12 7 4 3 5 6 7 7
6 6 5 5 4 4 5 5 4 4 5 5 7 12 12 6 3 4 5 5 7 8
6 6 6 6 6 3 4 5 5 5 4 6 6 9 11 8 3 5 5 5 7 10
5 6 6 5 3 4 4 5 5 5 3 4 6 6 11 10 4 4 5 7 8 8
Wind_Direction
104 110 108 110 96 82 73 68 63 70 68 63 57 52 52 57 56 47 48 45 41 40
100 104 104 95 100 109 119 98 81 78 72 59 55 55 56 60 58 55 46 40 33 24
93 93 94 101 96 98 87 95 76 72 68 57 49 51 56 56 45 51 37 34 20 16
98 88 86 86 92 96 89 78 82 74 67 67 54 38 49 47 42 42 28 20 18 16
84 79 78 79 81 86 86 77 91 79 77 59 46 35 40 43 39 38 24 17 21 19
89 88 83 85 87 88 99 80 68 66 55 44 31 30 34 42 44 44 35 24 26 16
88 87 90 93 91 86 82 77 65 55 52 38 29 31 35 39 43 47 41 33 21 7
87 87 83 76 79 74 66 65 69 56 45 28 31 29 32 48 46 40 32 26 14 342
96 90 83 80 79 75 69 67 65 52 46 34 35 21 39 56 52 42 32 7 351 337
87 83 80 80 80 73 72 79 69 53 47 41 37 21 30 43 49 34 354 346 352 2
85 84 80 76 80 83 83 97 81 60 48 31 39 29 27 29 37 22 14 1 3 359
105 99 92 86 97 93 107 110 85 62 48 35 32 18 21 13 19 37 16 356 2 9
113 111 104 107 94 82 90 108 93 73 44 41 39 14 21 7 6 22 351 352 8 12
109 104 113 84 65 87 98 96 81 70 36 43 37 10 28 9 5 352 358 12 9 12